This is the latest recevied weather packets stored in our database for station/object W8RSN-13. If no packets are shown the sender has not sent any weather packets the latest 10 day(s).
| Time | Temp. | Humidity | Pressure | Rain* | Wind** | Luminosity | Snow |
|---|---|---|---|---|---|---|---|
| 1788663572 | 27.22° C | 31% | 1014.7 hPa | - | - | - | - |
| 1788663271 | 27.22° C | 31% | 1014.6 hPa | - | - | - | - |
| 1788662970 | 27.78° C | 30% | 1014.7 hPa | - | - | - | - |
| 1788662669 | 27.78° C | 30% | 1014.3 hPa | - | - | - | - |
| 1788662369 | 27.78° C | 30% | 1014.7 hPa | - | - | - | - |
| 1788662068 | 27.78° C | 30% | 1014.5 hPa | - | - | - | - |
| 1788661767 | 28.33° C | 30% | 1014.4 hPa | - | - | - | - |
| 1788661467 | 28.33° C | 29% | 1014.3 hPa | - | - | - | - |
| 1788661165 | 28.89° C | 29% | 1014.3 hPa | - | - | - | - |
| 1788660864 | 29.44° C | 29% | 1014.3 hPa | - | - | - | - |
| 1788660563 | 29.44° C | 30% | 1014.3 hPa | - | - | - | - |
| 1788660262 | 30° C | 29% | 1014.1 hPa | - | - | - | - |
| 1788659961 | 30° C | 29% | 1014.1 hPa | - | - | - | - |
| 1788659661 | 30° C | 30% | 1014.1 hPa | - | - | - | - |
| 1788659360 | 30.56° C | 28% | 1014.1 hPa | - | - | - | - |
| 1788659059 | 31.11° C | 28% | 1014 hPa | - | - | - | - |
| 1788658758 | 32.22° C | 30% | 1014 hPa | - | - | - | - |
| 1788658457 | 32.22° C | 30% | 1014.1 hPa | - | - | - | - |
| 1788658156 | 32.22° C | 30% | 1014 hPa | - | - | - | - |
| 1788657876 | 32.22° C | 31% | 1014 hPa | - | - | - | - |
| 1788657575 | 32.22° C | 30% | 1014 hPa | - | - | - | - |
| 1788657274 | 32.22° C | 30% | 1014.2 hPa | - | - | - | - |
| 1788656973 | 32.78° C | 30% | 1014 hPa | - | - | - | - |
| 1788656672 | 32.78° C | 29% | 1014.1 hPa | - | - | - | - |
| 1788656371 | 32.78° C | 29% | 1014 hPa | - | - | - | - |
* Rain since midnight (hover to see other rain measurements)
** Current wind speed in m/s (hover to see current wind gust speed)